Weather reports worldwide

Advertisment
Milano/Linate, Italy (16080): temperature & dewpoint: 16.07.2019 21:00:00 - 22.07.2019 21:00:00 (CEST)Milano/Linate, Italy (16080): wind speed: 16.07.2019 21:00:00 - 22.07.2019 21:00:00 (CEST)Milano/Linate, Italy (16080): wind direction: 16.07.2019 21:00:00 - 22.07.2019 21:00:00 (CEST)Milano/Linate, Italy (16080): reduced air pressure: 16.07.2019 21:00:00 - 22.07.2019 21:00:00 (CEST)Milano/Linate, Italy (16080): visibility: 16.07.2019 21:00:00 - 22.07.2019 21:00:00 (CEST)Milano/Linate, Italy (16080): precipitation: 16.07.2019 21:00:00 - 22.07.2019 21:00:00 (CEST)
Date & Time tt [°C] td [°C] ff [km/h] ff [kn] dd ppp [hPa] vv [km] rr [mm]
22.07.2019 21:00:00 30,0 20,0 4 2 SSW - 10 -
22.07.2019 20:00:00 31,4 19,3 8 4 S 1019,7 10 -
22.07.2019 19:00:00 32,0 19,0 8 4 S - 10 -
22.07.2019 18:00:00 32,0 20,0 11 6 S - 10 -
22.07.2019 17:00:00 33,0 20,4 8 4 - 1020,4 10 0,0
22.07.2019 16:00:00 32,0 20,0 8 4 SW - 10 -
22.07.2019 15:00:00 31,0 21,0 8 4 - - 10 -
22.07.2019 14:00:00 31,0 20,3 8 4 - 1021,9 10 -
22.07.2019 13:00:00 30,0 20,0 8 4 - - 10 -
22.07.2019 12:00:00 30,0 20,0 5 3 - - 10 -
22.07.2019 11:00:00 29,1 18,9 5 3 - 1022,8 10 0,0
22.07.2019 10:00:00 29,0 19,0 4 2 - - 10 -
22.07.2019 09:00:00 28,0 17,0 2 1 - - 10 -
22.07.2019 08:00:00 24,6 17,6 4 2 - 1022,4 10 -
22.07.2019 07:00:00 22,0 17,0 2 1 SW - 10 -
22.07.2019 06:00:00 - - - - - - - -
22.07.2019 05:00:00 21,0 17,5 2 1 - 1021,8 10 0,0
22.07.2019 04:00:00 23,0 16,0 2 1 - - 10 -
22.07.2019 03:00:00 24,0 15,0 8 4 N - 10 -
22.07.2019 02:00:00 25,2 13,8 5 3 NW 1021,6 10 -
22.07.2019 01:00:00 24,0 16,0 5 3 WNW - 10 -
22.07.2019 00:00:00 25,0 16,0 8 4 W - 10 -
21.07.2019 23:00:00 26,3 17,4 5 3 W 1020,4 10 0,0
21.07.2019 22:00:00 28,0 19,0 8 4 SW - 10 -
21.07.2019 21:00:00 29,0 20,0 8 4 W - 10 -
21.07.2019 20:00:00 30,6 18,8 5 3 WSW 1018,1 10 -
21.07.2019 19:00:00 31,0 20,0 9 5 WSW - 10 -
21.07.2019 18:00:00 31,0 19,0 13 7 W - 10 -
21.07.2019 17:00:00 31,8 19,5 11 6 W 1018,1 10 0,0
21.07.2019 16:00:00 31,0 20,0 9 5 SW - 10 -
21.07.2019 15:00:00 30,0 20,0 9 5 WSW - 10 -
21.07.2019 14:00:00 29,9 21,0 9 5 W 1019,2 10 -
21.07.2019 13:00:00 29,0 20,0 9 5 SW - 10 -
21.07.2019 12:00:00 28,0 18,0 9 5 WSW - 10 -
21.07.2019 11:00:00 27,8 16,8 9 5 SW 1020,1 - 0,0
21.07.2019 10:00:00 26,0 15,0 9 5 WSW - 10 -
21.07.2019 09:00:00 26,0 15,0 4 2 - - 10 -
21.07.2019 08:00:00 24,1 16,5 5 3 S 1019,6 10 -
21.07.2019 07:00:00 22,0 15,0 4 2 - - 10 -
21.07.2019 06:00:00 22,0 16,0 5 3 NNW - 10 -
21.07.2019 05:00:00 22,7 15,3 5 3 NNW 1019,2 - 0,0
21.07.2019 04:00:00 - - - - - - - -
21.07.2019 03:00:00 23,0 14,0 4 2 WNW - 10 -
21.07.2019 02:00:00 24,2 13,7 8 4 W 1019,0 10 -
21.07.2019 01:00:00 24,0 14,0 5 3 WNW - 10 -
21.07.2019 00:00:00 25,0 14,0 8 4 W - 10 -
20.07.2019 23:00:00 25,6 15,3 8 4 WSW 1018,4 10 0,0
20.07.2019 22:00:00 28,0 17,0 5 3 SW - 10 -
20.07.2019 21:00:00 29,0 17,0 8 4 W - 10 -
20.07.2019 20:00:00 29,9 17,0 8 4 WSW 1017,1 10 -
20.07.2019 19:00:00 31,0 17,0 8 4 W - 10 -
20.07.2019 18:00:00 31,0 17,0 8 4 WSW - 10 -
20.07.2019 17:00:00 31,1 17,1 9 5 SW 1017,3 10 0,0
20.07.2019 16:00:00 31,0 16,0 9 5 SW - 10 -
20.07.2019 15:00:00 30,0 17,0 9 5 SSW - 10 -
20.07.2019 14:00:00 29,6 19,2 8 4 - 1018,2 10 -
20.07.2019 13:00:00 29,0 18,0 8 4 S - 10 -
20.07.2019 12:00:00 29,0 19,0 5 3 - - 10 -
20.07.2019 11:00:00 27,2 19,2 8 4 - 1018,4 10 0,0
20.07.2019 10:00:00 26,0 18,0 11 6 ESE - 10 -
20.07.2019 09:00:00 25,0 18,0 5 3 ESE - 10 -
20.07.2019 08:00:00 23,4 18,0 5 3 E 1017,7 10 -
20.07.2019 07:00:00 21,0 18,0 2 1 - - 10 -
20.07.2019 06:00:00 21,0 18,0 2 1 - - 10 -
20.07.2019 05:00:00 22,3 17,8 4 2 E 1016,9 - 0,0
20.07.2019 04:00:00 22,0 19,0 2 1 - - 10 -
20.07.2019 03:00:00 22,0 19,0 2 1 - - 10 -
20.07.2019 02:00:00 23,5 18,5 4 2 - 1016,8 10 -
20.07.2019 01:00:00 22,0 19,0 2 1 N - 10 -
20.07.2019 00:00:00 22,0 18,0 2 1 - - 10 -
19.07.2019 23:00:00 24,2 17,8 4 2 S 1016,0 10 0,0
19.07.2019 22:00:00 26,0 18,0 5 3 S - 10 -
19.07.2019 21:00:00 27,0 18,0 4 2 - - 10 -
19.07.2019 20:00:00 29,5 15,7 5 3 SW 1014,7 10 -
19.07.2019 19:00:00 31,0 18,0 5 3 WSW - 10 -
19.07.2019 18:00:00 31,0 17,0 8 4 SW - 10 -
19.07.2019 17:00:00 30,1 16,4 8 4 - 1015,0 10 0,0
19.07.2019 16:00:00 30,0 17,0 11 6 ESE - 10 -
19.07.2019 15:00:00 29,0 17,0 11 6 - - 10 -
19.07.2019 14:00:00 28,9 16,4 9 5 SW 1016,2 10 -
19.07.2019 13:00:00 28,0 18,0 5 3 SSW - 10 -
19.07.2019 12:00:00 27,0 19,0 5 3 - - 10 -
19.07.2019 11:00:00 25,8 18,1 8 4 - 1016,9 10 0,0
19.07.2019 10:00:00 25,0 17,0 8 4 SE - 10 -
19.07.2019 09:00:00 24,0 16,0 8 4 E - 10 -
19.07.2019 08:00:00 22,7 16,4 4 2 - 1016,2 10 -
19.07.2019 07:00:00 20,0 16,0 5 3 NE - 10 -
19.07.2019 06:00:00 20,0 16,0 4 2 - - 10 -
19.07.2019 05:00:00 20,4 15,6 5 3 ENE 1015,5 10 0,0
19.07.2019 04:00:00 20,0 16,0 5 3 NE - 10 -
19.07.2019 03:00:00 20,0 17,0 4 2 - - 10 -
19.07.2019 02:00:00 21,6 16,6 8 4 ENE 1014,7 10 -
19.07.2019 01:00:00 22,0 18,0 8 4 ENE - 10 -
19.07.2019 00:00:00 21,0 18,0 4 2 - - 10 -
18.07.2019 23:00:00 23,5 18,1 8 4 ENE 1013,8 10 0,0
18.07.2019 22:00:00 24,0 18,0 8 4 ENE - 10 -
18.07.2019 21:00:00 25,0 18,0 8 4 E - 10 -
18.07.2019 20:00:00 24,6 18,1 11 6 ENE 1012,3 10 -
18.07.2019 19:00:00 25,0 17,0 15 8 ENE - 10 -
18.07.2019 18:00:00 28,0 17,0 22 12 ENE - 10 -
18.07.2019 17:00:00 28,7 15,0 8 4 S 1012,0 10 0,0
18.07.2019 16:00:00 28,0 17,0 11 6 S - 10 -
18.07.2019 15:00:00 28,0 18,0 9 5 SSE - 10 -
18.07.2019 14:00:00 27,6 17,1 13 7 SSE 1012,7 10 -
18.07.2019 13:00:00 - - - - - - - -
18.07.2019 12:00:00 26,0 18,0 16 9 SE - 10 -
18.07.2019 11:00:00 25,3 16,7 15 8 SE 1013,0 10 0,0
18.07.2019 10:00:00 24,0 15,0 9 5 SSE - 10 -
18.07.2019 09:00:00 22,0 15,0 4 2 - - 10 -
18.07.2019 08:00:00 22,0 13,9 5 3 E 1011,9 10 -
18.07.2019 07:00:00 21,0 13,0 8 4 ESE - 10 -
18.07.2019 06:00:00 19,0 15,0 4 2 - - 10 -
18.07.2019 05:00:00 18,1 14,0 2 1 - 1010,9 10 0,0
18.07.2019 04:00:00 - - - - - - - -
18.07.2019 03:00:00 19,0 15,0 4 2 NNW - 10 -
18.07.2019 02:00:00 22,0 12,8 5 3 NNW 1011,2 10 -
18.07.2019 01:00:00 23,0 11,0 4 2 - - 10 -
18.07.2019 00:00:00 22,0 12,0 5 3 W - 10 -
17.07.2019 23:00:00 23,6 12,9 5 3 W 1011,1 10 0,0
17.07.2019 22:00:00 25,0 14,0 4 2 - - 10 -
17.07.2019 21:00:00 27,0 15,0 8 4 W - 10 -
17.07.2019 20:00:00 28,8 14,7 9 5 WSW 1010,1 10 -
17.07.2019 19:00:00 29,0 14,0 9 5 W - 10 -
17.07.2019 18:00:00 29,0 14,0 8 4 W - 10 -
17.07.2019 17:00:00 29,5 14,3 8 4 W 1011,3 10 0,0
17.07.2019 16:00:00 30,0 12,0 9 5 SW - 10 -
17.07.2019 15:00:00 30,0 12,0 9 5 - - 10 -
17.07.2019 14:00:00 29,3 14,7 8 4 - 1012,6 10 -
17.07.2019 13:00:00 28,0 15,0 8 4 - - 10 -
17.07.2019 12:00:00 27,0 16,0 5 3 ESE - 10 -
17.07.2019 11:00:00 26,1 15,6 8 4 - 1013,7 10 0,0
17.07.2019 10:00:00 25,0 15,0 8 4 SSE - 10 -
17.07.2019 09:00:00 23,0 15,0 8 4 E - 10 -
17.07.2019 08:00:00 21,8 16,2 5 3 NE 1014,0 10 -
17.07.2019 07:00:00 19,0 16,0 2 1 N - 10 -
17.07.2019 06:00:00 18,0 15,0 4 2 NNE - 10 -
17.07.2019 05:00:00 17,2 15,6 2 1 W 1013,9 10 0,0
17.07.2019 04:00:00 19,0 16,0 4 2 - - 10 -
17.07.2019 03:00:00 19,0 16,0 4 2 NE - 10 -
17.07.2019 02:00:00 19,5 15,9 2 1 NE 1014,2 10 -
17.07.2019 01:00:00 19,0 17,0 2 1 E - 10 -
17.07.2019 00:00:00 20,0 16,0 2 1 NW - 10 -
16.07.2019 23:00:00 20,8 15,2 4 2 S 1013,6 10 0,0
16.07.2019 22:00:00 22,0 17,0 4 2 S - 10 -
16.07.2019 21:00:00 26,0 14,0 5 3 WSW - 10 -

tt = temperature
td = dewpoint
ff = wind speed
dd = wind direction
ppp = reduced air pressure
vv = visibility
rr = precipitation

Next stations